Regional Weather Roundup
Issued by NWS

Home | Current Version | Previous Version | Graphics & Text | Print | Product List | Glossary On
Versions: 1 2 3 4 5 6 7 8 9 10 11 12 13 14 15 16 17 18 19 20 21 22 23 24 25 26 27 28 29 30 31 32 33 34 35 36 37 38 39 40 41 42 43 44 45 46 47 48 49 50
000
ASUS43 KTOP 170659
RWRKS

WEATHER ROUNDUP FOR KANSAS
NATIONAL WEATHER SERVICE GOODLAND KS
200 AM CDT WED SEP 17 2014

NOTE:  "FAIR" INDICATES FEW OR NO CLOUDS BELOW 12,000 FEET WITH NO
SIGNIFICANT WEATHER AND/OR OBSTRUCTIONS TO VISIBILITY.

KSZ001>006-013>018-027>032-041>047-170800-
NORTHWEST KANSAS

CITY           SKY/WX    TMP DP  RH WIND       PRES   REMARKS
GOODLAND       CLEAR     57  51  80 W7        30.00F
HAYS           CLEAR     63  57  82 SE5       29.93F
HILL CITY      CLEAR     57  56  96 CALM      29.93F
RUSSELL        CLEAR     65  62  90 S14       29.92F
$$

KSZ061>065-074>080-084>089-170800-
SOUTHWEST KANSAS

CITY           SKY/WX    TMP DP  RH WIND       PRES   REMARKS
DODGE CITY     CLEAR     66  59  78 S10       29.98F
ELKHART          N/A     65  59  81 SW7         N/A
GARDEN CITY    CLEAR     62  59  90 S7        29.98S
GREAT BEND     CLEAR     66  61  82 S9        29.95F
LIBERAL        CLEAR     63  57  82 SW7       30.02F
$$

KSZ066>073-081>083-090>101-170800-
SOUTHEAST KANSAS

CITY           SKY/WX    TMP DP  RH WIND       PRES   REMARKS
CHANUTE        MOCLDY    65  63  93 E3        30.00F
COFFEYVILLE    MOCLDY    66  64  93 SE5       29.99F FOG
HUTCHINSON     PTCLDY    67  63  87 S8        29.97F
NEWTON         CLEAR     64  59  82 S9        29.99F
PARSONS        PTCLDY    64  64 100 CALM      30.01F FOG
WICHITA INTL   MOCLDY    67  63  87 S6        29.97S
WICHITA JABRA  CLEAR     65  63  93 S8        29.97F
WINFIELD       CLEAR     67  65  93 S10       29.98F
$$

KSZ007>012-019>026-033>040-048>060-102>105-170800-
NORTHEAST KANSAS

CITY           SKY/WX    TMP DP  RH WIND       PRES   REMARKS
CONCORDIA      PTCLDY    58  56  93 CALM      29.95F
EMPORIA        PTCLDY    63  62  97 SE8       29.98F
LAWRENCE       MOCLDY    62  58  86 SE6       29.99F
MANHATTAN      MOCLDY    62  59  90 N3        29.96F
OLATHE IND     MOCLDY    63  59  87 S7        30.01F
OLATHE EXE     CLOUDY    62  59  90 S9        29.99F
SALINA         CLEAR     67  64  90 S10       29.94F
TOPEKA BILLARD CLOUDY    65  61  87 SE6       29.99R
TOPEKA FORBES  CLOUDY    65  59  81 SE7       29.98F
$$



USA.gov is the U.S. government's official web portal to all federal, state and local government web resources and services.